Regional Weather Roundup
Issued by NWS Albany, NY

Home | Current Version | Previous Version | Graphics & Text | Print | Product List | Glossary Off
Versions: 1 2 3 4 5 6 7 8 9 10 11 12 13 14 15 16 17 18 19 20 21 22 23 24 25 26 27

000
ASUS41 KALY 310910
RWRALY

NEW YORK STATE HOURLY WEATHER ROUNDUP
NATIONAL WEATHER SERVICE ALBANY NY
500 AM EDT TUE MAY 31 2016

NOTE: "FAIR" INDICATES FEW OR NO CLOUDS BELOW 12,000 FEET WITH NO
SIGNIFICANT WEATHER AND/OR NO OBSTRUCTIONS TO VISIBILITY.

NYZ032-033-038>043-046>054-057>066-NYZ062>081-082-084-311000-
EAST


CITY           SKY/WX    TMP DP  RH WIND       PRES   REMARKS
ALBANY         PTCLDY    61  58  90 CALM      29.94R
GLENS FALLS    CLEAR     58  54  86 CALM      29.91S
POUGHKEEPSIE   CLOUDY    65  61  87 CALM      29.93R
NEWBURGH       PTCLDY    64  63  94 CALM      29.95S
MONTGOMERY     CLOUDY    65  62  90 CALM      29.94S
WHITE PLAINS   CLOUDY    68  66  93 CALM      29.92F
NEW YORK CITY  CLOUDY    73  67  80 SW3       29.92S
CENTRAL PARK   CLOUDY    72  66  81 VRB3      29.95S
$$

NYZ005>009-017-018-044>046-055-056-311000-
CENTRAL


CITY           SKY/WX    TMP DP  RH WIND       PRES   REMARKS
FULTON         MOCLDY    56  53  90 CALM      29.96R
SYRACUSE       PTCLDY    60  53  77 CALM      29.95S
ROME           PTCLDY    55  54  96 CALM      29.97R
ELMIRA         FOG       50  48  93 CALM      29.99R VSB 3/4
BINGHAMTON     CLEAR     59  49  69 CALM      29.99S
MONTICELLO     PTCLDY    59  59 100 CALM      30.00S
$$

NYZ026>034-041>043-087-311000-
NORTH


CITY           SKY/WX    TMP DP  RH WIND       PRES   REMARKS
WATERTOWN      CLEAR     57  52  83 S6        29.93F
FORT DRUM      NOT AVBL
MASSENA        CLEAR     56  50  80 SW6       29.87F
SARANAC LAKE   CLEAR     55  48  77 SW7       29.92S
PLATTSBURGH    MOCLDY    64  50  60 W3        29.88R
$$

NYZ001>004-010>016-019>021-085-311000-
WEST


CITY           SKY/WX    TMP DP  RH WIND       PRES   REMARKS
NIAGARA FALLS  MOCLDY    59  54  83 CALM      29.98R
BUFFALO        PTCLDY    62  56  80 SE3       29.98R
DUNKIRK        MOCLDY    58  55  90 SE5       29.99R
JAMESTOWN      CLEAR     55  52  88 CALM      30.01S
WELLSVILLE     CLEAR     53  51  93 W5        30.04R
ROCHESTER      CLOUDY    59  57  93 SW5       29.98R
PENN YAN       PTCLDY    60  56  86 SW7       29.98S
$$

             KEY
       WCI = WIND CHILL INDEX
       VSB = VISIBILITY
       HX  = HEAT INDEX
$$




USA.gov is the U.S. government's official web portal to all federal, state and local government web resources and services.